Spokane Fairchild, WA
on Friday, December 7, 2012

Friday
Previous Day Next Day
Daily Summary
 ActualAverage (KGEG)Record (KGEG)
Temperature
Mean Temperature °F 28°F  
Max Temperature 39°F 33°F 54°F (1938)
Min Temperature 27°F 24°F -5°F (1972)
Degree Days
Heating Degree Days 32 37  
Month to date heating degree days 252  
Since 1 July heating degree days 1919  
Cooling Degree Days 0 0  
Month to date cooling degree days 0  
Year to date cooling degree days 450  
Moisture
Dew Point 32°F   
Average Humidity 100    
Maximum Humidity 100    
Minimum Humidity 100    
Precipitation
Precipitation 0.04 in 0.08 in 0.65 in (1882)
Month to date precipitation 0.59  
Year to date precipitation 14.85  
Snow
Snow 0.00 in 0.40 in 4.80 in (1966)
Month to date snowfall 2.9  
Since 1 July snowfall 10.4  
Snow Depth in   
Wind
Wind Speed 11 mph   
Max Wind Speed 28 mph   
Max Gust Speed 37 mph   
Visibility 9 miles   
Events Rain , Snow   

Key: T is trace of precipitation, MM is missing value
Source: NWS Daily Summary
Time(PST)TemperatureDew PointHumidity Pressure Visibility Wind DirectionWind SpeedGust SpeedPrecipitationEvents Conditions
12:58 AM 28.6°F 28.6°F 100% 30.04 in 10.0 miles SSW 6.9 mph - N/A   Clear
1:11 AM 28.4°F 28.4°F 100% 29.97 in 10.0 miles Calm Calm - N/A   Clear
1:23 AM 28.4°F 28.4°F 100% 29.98 in 10.0 miles SW 5.8 mph - N/A   Clear
1:40 AM 28.4°F 28.4°F 100% 29.97 in 10.0 miles SSE 3.5 mph - N/A   Clear
1:50 AM 28.4°F 28.4°F 100% 29.97 in 10.0 miles South 4.6 mph - N/A   Clear
1:58 AM 28.4°F 28.4°F 100% 30.06 in 10.0 miles South 8.1 mph - 0.00 in   Clear
2:05 AM 28.4°F 28.4°F 100% 29.98 in 10.0 miles South 9.2 mph - N/A   Partly Cloudy
2:20 AM 28.4°F 28.4°F 100% 29.98 in 9.0 miles SSW 8.1 mph - N/A   Mostly Cloudy
2:43 AM 28.4°F 28.4°F 100% 29.98 in 9.0 miles South 10.4 mph - N/A   Overcast
2:58 AM 28.9°F 28.9°F 100% 30.06 in 3.0 miles SSW 12.7 mph - 0.00 in   Overcast
3:02 AM 28.4°F 28.4°F 100% 29.98 in 3.0 miles South 12.7 mph - N/A   Overcast
3:07 AM 28.4°F 28.4°F 100% 29.98 in 2.0 miles South 9.2 mph - N/A   Overcast
3:12 AM 28.4°F 28.4°F 100% 29.97 in 1.2 miles South 9.2 mph - N/A   Overcast
3:17 AM 28.4°F 28.4°F 100% 29.97 in 1.0 miles South 8.1 mph - N/A   Light Freezing Drizzle
3:27 AM 28.4°F 28.4°F 100% 29.97 in 1.0 miles South 8.1 mph - N/A Rain Light Freezing Rain
3:47 AM 28.4°F 28.4°F 100% 29.98 in 1.2 miles South 8.1 mph - N/A Rain Light Freezing Rain
3:52 AM 28.4°F 28.4°F 100% 29.97 in 1.5 miles South 8.1 mph - N/A Rain Light Freezing Rain
3:57 AM 28.4°F 28.4°F 100% 29.97 in 2.0 miles South 4.6 mph - N/A Rain Light Freezing Rain
3:58 AM 28.9°F 28.9°F 100% 30.05 in 2.5 miles South 4.6 mph - 0.00 in   Overcast
4:03 AM 28.4°F 28.4°F 100% 29.97 in 4.0 miles South 5.8 mph - N/A   Overcast
4:48 AM 30.2°F 30.2°F 100% 29.96 in 10.0 miles South 6.9 mph - N/A   Overcast
4:52 AM 30.2°F 30.2°F 100% 29.96 in 10.0 miles South 6.9 mph - N/A   Overcast
4:55 AM 30.2°F 30.2°F 100% 29.95 in 10.0 miles South 8.1 mph - N/A   Overcast
4:58 AM 29.5°F 29.5°F 100% 30.02 in 10.0 miles South 5.8 mph - N/A   Overcast
5:31 AM 30.2°F 30.2°F 100% 29.96 in 10.0 miles South 10.4 mph - N/A   Overcast
5:33 AM 30.2°F 30.2°F 100% 29.96 in 10.0 miles South 10.4 mph - N/A   Overcast
5:36 AM 30.2°F 30.2°F 100% 29.96 in 10.0 miles SSW 10.4 mph - N/A   Overcast
5:37 AM 30.2°F 30.2°F 100% 29.95 in 10.0 miles SSW 9.2 mph - N/A   Overcast
5:47 AM 32.0°F 32.0°F 100% 29.95 in 10.0 miles SSW 10.4 mph - N/A   Overcast
5:58 AM 30.4°F 30.4°F 100% 30.01 in 10.0 miles SSW 9.2 mph - 0.00 in   Overcast
6:13 AM 32.0°F 32.0°F 100% 29.94 in 10.0 miles SSW 12.7 mph - N/A   Overcast
6:43 AM 32.0°F 32.0°F 100% 29.93 in 10.0 miles South 10.4 mph - N/A   Overcast
6:49 AM 32.0°F 32.0°F 100% 29.93 in 10.0 miles South 12.7 mph - N/A   Overcast
6:54 AM 32.0°F 32.0°F 100% 29.93 in 10.0 miles South 11.5 mph - N/A   Overcast
6:58 AM 31.3°F 31.3°F 100% 30.00 in 10.0 miles South 17.3 mph 21.9 mph 0.00 in   Overcast
6:59 AM 32.0°F 32.0°F 100% 29.93 in 10.0 miles South 15.0 mph 21.9 mph N/A   Overcast
7:07 AM 32.0°F 32.0°F 100% 29.93 in 10.0 miles South 11.5 mph 21.9 mph N/A   Overcast
7:17 AM 32.0°F 32.0°F 100% 29.94 in 4.0 miles SSW 10.4 mph - N/A Snow Light Snow
7:22 AM 32.0°F 32.0°F 100% 29.93 in 1.8 miles SSW 10.4 mph - N/A Snow Light Snow
7:27 AM 32.0°F 32.0°F 100% 29.93 in 1.2 miles South 9.2 mph - N/A Snow Light Snow
7:32 AM 32.0°F 32.0°F 100% 29.93 in 1.8 miles South 10.4 mph - N/A Snow Light Snow
7:37 AM 32.0°F 32.0°F 100% 29.93 in 2.5 miles South 9.2 mph - N/A Snow Light Snow
7:42 AM 32.0°F 32.0°F 100% 29.92 in 3.0 miles South 9.2 mph - N/A Snow Light Snow
7:52 AM 32.0°F 32.0°F 100% 29.92 in 7.0 miles South 9.2 mph - N/A Rain Light Rain
7:54 AM 32.0°F 32.0°F 100% 29.92 in 8.0 miles South 10.4 mph - N/A   Overcast
7:58 AM 32.0°F 32.0°F 100% 29.99 in 10.0 miles South 10.4 mph - 0.00 in   Overcast
8:03 AM 32.0°F 32.0°F 100% 29.92 in 10.0 miles South 10.4 mph - N/A   Overcast
8:31 AM 32.0°F 32.0°F 100% 29.90 in 10.0 miles South 16.1 mph - N/A   Overcast
8:43 AM 32.0°F 32.0°F 100% 29.89 in 10.0 miles SSW 13.8 mph 24.2 mph N/A   Overcast
8:48 AM 32.0°F 32.0°F 100% 29.89 in 10.0 miles South 16.1 mph 24.2 mph N/A   Overcast
8:52 AM 32.0°F 32.0°F 100% 29.89 in 10.0 miles SSW 17.3 mph - N/A   Overcast
8:58 AM 33.1°F 33.1°F 100% 29.96 in 10.0 miles SSW 17.3 mph 21.9 mph 0.00 in   Overcast
9:23 AM 32.0°F 32.0°F 100% 29.88 in 10.0 miles SSW 17.3 mph 24.2 mph N/A   Overcast
9:48 AM 33.8°F 33.8°F 100% 29.87 in 10.0 miles SSW 19.6 mph 28.8 mph N/A Snow Light Snow
9:58 AM 34.2°F 34.2°F 100% 29.93 in 10.0 miles SSW 19.6 mph 26.5 mph 0.00 in Snow Light Snow
10:28 AM 35.6°F 35.6°F 100% 29.85 in 10.0 miles SSW 19.6 mph 27.6 mph N/A Snow Light Snow
10:58 AM 35.4°F 35.4°F 100% 29.90 in 10.0 miles SSW 18.4 mph 24.2 mph 0.00 in Snow Light Snow
11:03 AM 35.6°F 35.6°F 100% 29.83 in 10.0 miles SSW 17.3 mph 24.2 mph N/A Snow Light Snow
11:28 AM 35.6°F 35.6°F 100% 29.81 in 8.0 miles SSW 19.6 mph 25.3 mph N/A Snow Light Snow
11:43 AM 33.8°F 33.8°F 100% 29.80 in 8.0 miles SSW 16.1 mph 23.0 mph N/A Snow Light Snow
11:58 AM 34.7°F 34.7°F 100% 29.85 in 9.0 miles SSW 17.3 mph 23.0 mph 0.03 in Snow Light Snow
12:23 PM 35.6°F 35.6°F 100% 29.77 in 10.0 miles SSW 20.7 mph 26.5 mph N/A Snow Light Snow
12:33 PM 35.6°F 35.6°F 100% 29.76 in 10.0 miles SSW 21.9 mph 31.1 mph N/A Snow Light Snow
12:38 PM 35.6°F 35.6°F 100% 29.76 in 10.0 miles SSW 21.9 mph 31.1 mph N/A Snow Light Snow
12:58 PM 37.4°F 37.4°F 100% 29.81 in 10.0 miles SSW 23.0 mph 32.2 mph 0.01 in Snow Light Snow
1:18 PM 37.4°F 37.4°F 100% 29.74 in 10.0 miles SSW 27.6 mph 35.7 mph N/A Snow Light Snow
1:45 PM 39.2°F 39.2°F 100% 29.74 in 10.0 miles SW 25.3 mph 33.4 mph N/A   Overcast
1:58 PM 38.7°F 38.7°F 100% 29.81 in 10.0 miles SW 21.9 mph 29.9 mph 0.00 in   Overcast
1:59 PM 39.2°F 39.2°F 100% 29.74 in 10.0 miles SW 20.7 mph 29.9 mph N/A Rain Light Rain
2:01 PM 39.2°F 39.2°F 100% 29.74 in 10.0 miles SW 23.0 mph 29.9 mph N/A   Overcast
2:07 PM 39.2°F 39.2°F 100% 29.74 in 10.0 miles SW 23.0 mph 29.9 mph N/A Rain Light Rain
2:28 PM 39.2°F 39.2°F 100% 29.73 in 10.0 miles SW 24.2 mph 36.8 mph N/A Rain Light Rain
2:58 PM 39.4°F 39.4°F 100% 29.80 in 10.0 miles SW 24.2 mph 31.1 mph 0.00 in Rain Light Rain
3:13 PM 39.2°F 39.2°F 100% 29.74 in 10.0 miles SW 19.6 mph 27.6 mph N/A   Light Drizzle
3:14 PM 39.2°F 39.2°F 100% 29.74 in 10.0 miles SW 18.4 mph 27.6 mph N/A   Overcast
3:29 PM 39.2°F 39.2°F 100% 29.74 in 10.0 miles WSW 17.3 mph 26.5 mph N/A   Overcast
3:34 PM 39.2°F 39.2°F 100% 29.74 in 10.0 miles WSW 20.7 mph - N/A   Overcast
3:58 PM 37.9°F 37.9°F 100% 29.81 in 10.0 miles SW 21.9 mph 26.5 mph 0.00 in   Mostly Cloudy
4:05 PM 37.4°F 37.4°F 100% 29.74 in 10.0 miles WSW 18.4 mph 26.5 mph N/A Snow Light Snow
4:29 PM 37.4°F 37.4°F 100% 29.73 in 10.0 miles WSW 17.3 mph - N/A   Mostly Cloudy
4:58 PM 35.2°F 35.2°F 100% 29.81 in 10.0 miles WSW 11.5 mph - 0.00 in   Partly Cloudy
5:46 PM 32.0°F 32.0°F 100% 29.76 in 10.0 miles West 12.7 mph - N/A   Mostly Cloudy
5:58 PM 33.1°F 33.1°F 100% 29.82 in 10.0 miles West 19.6 mph - 0.00 in   Scattered Clouds
6:34 PM 32.0°F 32.0°F 100% 29.76 in 10.0 miles West 15.0 mph - N/A   Clear
6:58 PM 31.5°F 31.5°F 100% 29.84 in 10.0 miles West 13.8 mph - 0.00 in   Clear
7:17 PM 32.0°F 32.0°F 100% 29.78 in 10.0 miles West 12.7 mph - N/A   Clear
7:29 PM 32.0°F 32.0°F 100% 29.78 in 10.0 miles West 17.3 mph - N/A   Clear
7:41 PM 32.0°F 32.0°F 100% 29.78 in 10.0 miles West 16.1 mph - N/A   Clear
7:58 PM 30.2°F 30.2°F 100% 29.85 in 10.0 miles West 15.0 mph - 0.00 in   Clear
8:08 PM 30.2°F 30.2°F 100% 29.79 in 10.0 miles WSW 18.4 mph 25.3 mph N/A   Clear
8:27 PM 30.2°F 30.2°F 100% 29.79 in 10.0 miles West 17.3 mph - N/A   Scattered Clouds
8:39 PM 30.2°F 30.2°F 100% 29.80 in 9.0 miles West 16.1 mph - N/A   Mostly Cloudy
8:58 PM 30.2°F 30.2°F 100% 29.87 in 10.0 miles West 13.8 mph - 0.00 in Snow Light Snow
9:08 PM 30.2°F 30.2°F 100% 29.81 in 10.0 miles West 15.0 mph - N/A   Overcast
9:46 PM 30.2°F 30.2°F 100% 29.84 in 10.0 miles WSW 12.7 mph - N/A   Overcast
9:58 PM 29.7°F 29.7°F 100% 29.91 in 10.0 miles West 15.0 mph - 0.00 in   Overcast
10:08 PM 28.4°F 28.4°F 100% 29.85 in 10.0 miles West 15.0 mph - N/A   Overcast
10:58 PM 27.9°F 27.9°F 100% 29.94 in 10.0 miles WSW 16.1 mph - 0.00 in   Overcast
11:33 PM 28.4°F 28.4°F 100% 29.89 in 10.0 miles WSW 15.0 mph - N/A   Mostly Cloudy
11:46 PM 28.4°F 28.4°F 100% 29.89 in 10.0 miles WSW 13.8 mph - N/A   Mostly Cloudy
11:58 PM 27.1°F 27.1°F 100% 29.97 in 10.0 miles WSW 15.0 mph - 0.00 in   Scattered Clouds
Moon Phase
Dec. 07 Dec. 13 Dec. 20 Dec. 28 Jan. 04
Sunrise:07:25 AM (PST) Moon Rise:12:25 AM (PST)12/7
Sunset:03:59 PM (PST) Moon Set:12:19 PM (PST)12/7

Copyright © 2014 The Weather Underground, Inc.